Regional Weather Roundup
Issued by NWS

Home | Current Version | Previous Version | Graphics & Text | Print | Product List | Glossary On
Versions: 1 2 3 4 5 6 7 8 9 10 11 12 13 14 15 16 17 18 19 20 21 22 23 24 25 26 27 28 29 30 31 32 33 34 35 36 37 38 39 40 41 42 43 44 45 46 47 48 49 50
000
ASUS43 KLSX 230307
RWRMO

WEATHER SUMMARY FOR MISSOURI
NATIONAL WEATHER SERVICE SPRINGFIELD MO
1000 PM CDT THU JUN 22 2017

NOTE: "FAIR" INDICATES FEW OR NO CLOUDS BELOW 12,000 FEET WITH NO
       SIGNIFICANT WEATHER AND/OR OBSTRUCTIONS TO VISIBILITY.
       CURRENT SKY AND/OR WEATHER CONDITIONS ARE NOT AVAILABLE FOR
       CHILLICOTHE AND FARMINGTON.

MOZ001>031-035>038-043-044-053-054-230400-
...NORTHERN AND WESTERN MISSOURI...

CITY           SKY/WX    TMP DP  RH WIND       PRES   REMARKS
KANSAS CTY INT PTCLDY    78  72  81 S5        29.70R
KANSAS C DTWN  PTCLDY    82  74  76 S6        29.69R
LEE`S SUMMIT   PTCLDY    80  74  81 S5        29.71R
ST JOSEPH      CLEAR     80  73  79 S9        29.67S
CHILLICOTHE      N/A     78  73  84 CALM      29.71R
KIRKSVILLE     CLEAR     76  72  87 S3        29.71S

$$
MOZ066>068-077>081-088>096-101>105-230400-
...SOUTHWEST MISSOURI...

CITY           SKY/WX    TMP DP  RH WIND       PRES   REMARKS
SPRINGFIELD    PTCLDY    79  72  79 SE14      29.72R
JOPLIN         PTCLDY    79  75  87 SE3       29.70R
BRANSON        MOCLDY    73  72  94 CALM      29.76R

$$
MOZ032>034-039>042-045>050-055>058-069>072-230400-
...CENTRAL MISSOURI...

CITY           SKY/WX    TMP DP  RH WIND       PRES   REMARKS
COLUMBIA       CLOUDY    78  74  87 SE6       29.72R
JEFFERSON CITY CLEAR     80  73  79 E6        29.70R
ROLLA          PTCLDY    76  73  91 SE9       29.73S
SEDALIA        CLEAR     78  75  90 CALM      29.72R
WHITEMAN AFB   PTCLDY    77  77 100 S3        29.69R
WARRENSBURG    CLEAR     77  72  83 CALM      29.70R
OSAGE BEACH    CLOUDY    77  73  87 SE3       29.72R

$$
MOZ051-052-059>065-230400-
...EAST CENTRAL MISSOURI...

CITY           SKY/WX    TMP DP  RH WIND       PRES   REMARKS
ST LOUIS INTL  CLOUDY    82  72  71 S16G22    29.75R
SPIRIT OF STL  PTCLDY    79  74  84 VRB5      29.73R
ST CHARLES     PTCLDY    79  74  84 MISG      29.73R

$$
MOZ072>076-082>087-097>100-106>115-230400-
...SOUTH CENTRAL AND SOUTHEAST MISSOURI...

CITY           SKY/WX    TMP DP  RH WIND       PRES   REMARKS
CAPE GIRARDEAU LGT RAIN  79  74  84 SE9       29.77R
FARMINGTON     LGT RAIN  76  74  93 S7        29.78R
POPLAR BLUFF   CLOUDY    76  75  97 CALM      29.77R
WEST PLAINS    CLOUDY    75  72  90 SE3       29.77S

$$


USA.gov is the U.S. government's official web portal to all federal, state and local government web resources and services.